Location: Rounton
(54.4000°N, 1.3500°W)
Time: 21:42:26
(UTC+01:00)

YAOGAN 20A - Pass Details

Date: 07 July 2022
Orbit: 891 x 1288 km, 63.4° (Epoch: 18 August)

Event Time Altitude Azimuth Distance (km) Brightness Sun altitude
Rises 22:41:03 0° 306° (NW) 3,763 9.6 -6.7°
Reaches altitude 10° 22:43:35 10° 310° (NW) 2,863 8.8 -6.9°
Maximum altitude 22:50:23 66° 32° (NNE) 1,225 5.6 -7.4°
Drops below altitude 10° 22:57:52 10° 114° (ESE) 3,142 7.1 -8.0°
Enters shadow 22:59:51 - 117° (ESE) 3,827 7.5 -8.1°
